| time (UTC) | temp C | wind direction | speed KPH | gust KPH | rain 1hr cm | rain 24hr cm | rain mn cm | humidity % | barometer mb |
| 20260503224553 | 27 | 355 | 4.8 | 0.0 | 0.00 | 0.00 | 0.00 | 41 | 1009.7 |
| 20260503223052 | 27 | 17 | 4.8 | 0.0 | 0.00 | 0.00 | 0.00 | 41 | 1009.9 |
| 20260503221549 | 26 | 20 | 4.8 | 0.0 | 0.00 | 0.00 | 0.00 | 43 | 1010.2 |
| 20260503220052 | 26 | 19 | 6.4 | 0.0 | 0.00 | 0.00 | 0.00 | 42 | 1010.3 |
| 20260503214546 | 27 | 5 | 6.4 | 0.0 | 0.00 | 0.00 | 0.00 | 42 | 1010.4 |
| 20260503213052 | 27 | 9 | 3.2 | 0.0 | 0.00 | 0.00 | 0.00 | 43 | 1010.5 |
| 20260503211505 | 26 | 329 | 3.2 | 0.0 | 0.00 | 0.00 | 0.00 | 41 | 1010.6 |
| 20260503210027 | 26 | 22 | 3.2 | 0.0 | 0.00 | 0.00 | 0.00 | 41 | 1010.8 |
| 20260503204525 | 26 | 22 | 3.2 | 0.0 | 0.00 | 0.00 | 0.00 | 41 | 1011.0 |
| 20260503203029 | 26 | 360 | 3.2 | 0.0 | 0.00 | 0.00 | 0.00 | 40 | 1011.2 |
| 20260503201519 | 25 | 9 | 3.2 | 0.0 | 0.00 | 0.00 | 0.00 | 44 | 1011.3 |
| 20260503200015 | 25 | 33 | 3.2 | 0.0 | 0.00 | 0.00 | 0.00 | 46 | 1011.5 |
| 20260503194511 | 24 | 348 | 3.2 | 0.0 | 0.00 | 0.00 | 0.00 | 45 | 1011.7 |
| 20260503193011 | 24 | 323 | 4.8 | 0.0 | 0.00 | 0.00 | 0.00 | 47 | 1012.0 |
| 20260503191513 | 23 | 321 | 4.8 | 0.0 | 0.00 | 0.00 | 0.00 | 46 | 1012.1 |
| 20260503190003 | 23 | 5 | 4.8 | 0.0 | 0.00 | 0.00 | 0.00 | 46 | 1012.4 |
| 20260503184610 | 22 | 36 | 4.8 | 0.0 | 0.00 | 0.00 | 0.00 | 49 | 1012.5 |
| 20260503183109 | 22 | 16 | 4.8 | 0.0 | 0.00 | 0.00 | 0.00 | 50 | 1012.7 |
| 20260503181607 | 22 | 5 | 3.2 | 0.0 | 0.00 | 0.00 | 0.00 | 53 | 1012.7 |
| 20260503180049 | 21 | 5 | 4.8 | 0.0 | 0.00 | 0.00 | 0.00 | 55 | 1012.7 |
| 20260503174545 | 20 | 321 | 3.2 | 0.0 | 0.00 | 0.00 | 0.00 | 58 | 1012.9 |
| 20260503173045 | 20 | 5 | 0.0 | 0.0 | 0.00 | 0.00 | 0.00 | 62 | 1013.0 |
| 20260503171537 | 18 | 5 | 1.6 | 0.0 | 0.00 | 0.00 | 0.00 | 64 | 1013.1 |
| 20260503081604 | 14 | 286 | 0.0 | 0.0 | 0.00 | 0.00 | 0.00 | 72 | 1013.6 |
| 20260503071531 | 15 | 286 | 0.0 | 0.0 | 0.00 | 0.00 | 0.00 | 68 | 1013.5 |
| 20260503054529 | 16 | 286 | 0.0 | 0.0 | 0.00 | 0.00 | 0.00 | 62 | 1013.4 |
| 20260503053028 | 16 | 286 | 0.0 | 0.0 | 0.00 | 0.00 | 0.00 | 61 | 1013.4 |
| 20260503051528 | 16 | 286 | 0.0 | 0.0 | 0.00 | 0.00 | 0.00 | 60 | 1013.5 |
| 20260503050035 | 17 | 286 | 0.0 | 0.0 | 0.00 | 0.00 | 0.00 | 58 | 1013.4 |
| 20260503044528 | 17 | 286 | 0.0 | 0.0 | 0.00 | 0.00 | 0.00 | 57 | 1013.3 |
| 20260503043027 | 17 | 286 | 0.0 | 0.0 | 0.00 | 0.00 | 0.00 | 56 | 1013.2 |
| 20260503041526 | 18 | 286 | 0.0 | 0.0 | 0.00 | 0.00 | 0.00 | 57 | 1013.0 |
| 20260503040034 | 18 | 286 | 0.0 | 0.0 | 0.00 | 0.00 | 0.00 | 55 | 1012.9 |
| 20260503034535 | 18 | 286 | 0.0 | 0.0 | 0.00 | 0.00 | 0.00 | 55 | 1012.6 |
| 20260503033029 | 19 | 286 | 0.0 | 0.0 | 0.00 | 0.00 | 0.00 | 53 | 1012.3 |
| 20260503031524 | 20 | 331 | 0.0 | 0.0 | 0.00 | 0.00 | 0.00 | 52 | 1012.3 |
| 20260503030024 | 20 | 331 | 0.0 | 0.0 | 0.00 | 0.00 | 0.00 | 52 | 1012.1 |
| 20260503024523 | 21 | 315 | 0.0 | 0.0 | 0.00 | 0.00 | 0.00 | 51 | 1012.1 |
| 20260503023024 | 21 | 351 | 1.6 | 0.0 | 0.00 | 0.00 | 0.00 | 49 | 1012.0 |
| 20260503021522 | 21 | 26 | 1.6 | 0.0 | 0.00 | 0.00 | 0.00 | 51 | 1011.9 |
| 20260503020022 | 22 | 5 | 3.2 | 0.0 | 0.00 | 0.00 | 0.00 | 50 | 1011.9 |
| 20260503014536 | 22 | 335 | 3.2 | 0.0 | 0.00 | 0.00 | 0.00 | 51 | 1012.0 |
| 20260503013025 | 22 | 360 | 4.8 | 0.0 | 0.00 | 0.00 | 0.00 | 51 | 1012.0 |
| 20260503011520 | 22 | 342 | 4.8 | 0.0 | 0.00 | 0.00 | 0.00 | 51 | 1012.0 |
| 20260503010019 | 23 | 324 | 3.2 | 0.0 | 0.00 | 0.00 | 0.00 | 53 | 1012.0 |
| 20260503004517 | 23 | 355 | 3.2 | 0.0 | 0.00 | 0.00 | 0.00 | 53 | 1012.1 |
| 20260503003016 | 23 | 360 | 3.2 | 0.0 | 0.00 | 0.00 | 0.00 | 52 | 1012.1 |
| 20260503001516 | 23 | 360 | 3.2 | 0.0 | 0.00 | 0.00 | 0.00 | 52 | 1012.2 |
| 20260503000016 | 23 | 355 | 1.6 | 0.0 | 0.00 | 0.00 | 0.00 | 51 | 1012.2 |
| 20260502234514 | 23 | 5 | 3.2 | 0.0 | 0.00 | 0.00 | 0.00 | 52 | 1012.3 |
| 20260502233010 | 23 | 355 | 3.2 | 0.0 | 0.00 | 0.00 | 0.00 | 51 | 1012.6 |
| 20260502231508 | 23 | 17 | 3.2 | 0.0 | 0.00 | 0.00 | 0.00 | 51 | 1012.9 |
| 20260502230009 | 23 | 44 | 4.8 | 0.0 | 0.00 | 0.00 | 0.00 | 48 | 1013.1 |